User: anonymous   Login
Location: Unspecified
(43.0000°N, 0.0000°E)
Time: 18:10:07
(UTC+00:00)
Language:

STARS - Orbit

View from above orbital plane
View from above orbital plane
View from above satellite
View from above satellite

Ground track
Ground track

The orbit data is extracted from the following two-line orbital elements,

1 33498U 09002G   19232.20182915  .00000104  00000-0  21647-4 0  9992
2 33498  98.3018  83.3842 0010431 334.9970  25.0734 14.79011143569248
Epoch (UTC): 20 August 2019 04:50:38
Eccentricity: 0.0010431
inclination: 98.3018°
perigee height: 625 km
apogee height: 640 km
right ascension of ascending node: 83.3842°
argument of perigee: 334.9970°
revolutions per day: 14.79011143
mean anomaly at epoch: 25.0734°
orbit number at epoch: 56924

The dashed part of the orbit path shows where the satellite is in the earth's shadow,  

DLR